Change the Weather History Date:

Tuesday, September 24, 2013

  Actual Average Record
Temperature  
Mean Temperature 31 °F -  
Max Temperature 41 °F 43 °F 60 °F (1997)
Min Temperature 21 °F 30 °F 17 °F (1996)
Degree Days  
Heating Degree Days 34    
Moisture  
Dew Point 21 °F    
Average Humidity 66    
Maximum Humidity 93    
Minimum Humidity 45    
Precipitation  
Precipitation 0.00 in - - ()
Sea Level Pressure  
Sea Level Pressure 29.82 in    
Wind  
Wind Speed 1 mph (NE)    
Max Wind Speed 6 mph    
Max Gust Speed -    
Visibility 10 miles    
Events      
Averages and records for this station are not official NWS values.
T = Trace of Precipitation, MM = Missing Value Source: NWS Daily Summary

Daily Weather History Graph

Daily Weather History Graph

Search for Another Location

Airport or City:

Trip Planner

Search our weather history database for the weather conditions in past years. The results will help you decide how hot, cold, wet, or windy it might be!

Date:

Astronomy

Sep. 24, 2013 Rise Set
Actual Time 7:59 AM AKDT 8:01 PM AKDT
Civil Twilight 7:11 AM AKDT 8:48 PM AKDT
Nautical Twilight 6:14 AM AKDT 9:45 PM AKDT
Astronomical Twilight 5:10 AM AKDT 10:48 PM AKDT
Moon 9:31 PM AKDT (9/24) 3:17 PM AKDT (9/24)
Length of Visible Light 13h 36m
Length of Day
12h 01m
Waning Gibbous, 72% of the Moon is Illuminated
Sep 24
Waning Gibbous
Sep 26
Last Quarter
Oct 4
New
Oct 11
First Quarter
Oct 18
Full

Hourly Weather History & Observations

Time (AKDT) Temp. Windchill Dew Point Humidity Pressure Visibility Wind Dir Wind Speed Gust Speed Precip Events Conditions
12:16 AM 28.4 °F - 19.4 °F 69% 29.86 in 10.0 mi Calm Calm - N/A   Clear
12:36 AM 26.6 °F - 19.4 °F 74% 29.87 in 10.0 mi Calm Calm - N/A   Clear
12:56 AM 26.6 °F - 19.4 °F 74% 29.87 in 10.0 mi Calm Calm - N/A   Clear
1:16 AM 26.6 °F - 19.4 °F 74% 29.87 in 10.0 mi Calm Calm - N/A   Clear
1:36 AM 28.4 °F - 19.4 °F 69% 29.88 in 10.0 mi Calm Calm - N/A   Clear
1:56 AM 26.6 °F - 19.4 °F 74% 29.88 in 10.0 mi Calm Calm - N/A   Clear
2:16 AM 26.6 °F - 19.4 °F 74% 29.89 in 10.0 mi Calm Calm - N/A   Clear
2:36 AM 26.6 °F - 19.4 °F 74% 29.89 in 10.0 mi Calm Calm - N/A   Clear
2:56 AM 26.6 °F - 21.2 °F 80% 29.89 in 10.0 mi Calm Calm - N/A   Clear
3:16 AM 26.6 °F - 21.2 °F 80% 29.89 in 10.0 mi Calm Calm - N/A   Clear
3:36 AM 26.6 °F - 21.2 °F 80% 29.89 in 10.0 mi Calm Calm - N/A   Clear
3:56 AM 24.8 °F - 21.2 °F 86% 29.89 in 10.0 mi Calm Calm - N/A   Clear
4:16 AM 23.0 °F - 19.4 °F 86% 29.90 in 10.0 mi Calm Calm - N/A   Clear
4:36 AM 24.8 °F - 21.2 °F 86% 29.90 in 10.0 mi Calm Calm - N/A   Clear
4:56 AM 24.8 °F - 19.4 °F 80% 29.91 in 10.0 mi Calm Calm - N/A   Clear
5:16 AM 24.8 °F - 21.2 °F 86% 29.91 in 10.0 mi Calm Calm - N/A   Clear
5:36 AM 24.8 °F - 21.2 °F 86% 29.92 in 10.0 mi Calm Calm - N/A   Clear
5:56 AM 21.2 °F - 19.4 °F 93% 29.92 in 10.0 mi Calm Calm - N/A   Clear
6:16 AM 21.2 °F - 19.4 °F 93% 29.92 in 10.0 mi Calm Calm - N/A   Clear
6:36 AM 21.2 °F - 19.4 °F 93% 29.93 in 10.0 mi Calm Calm - N/A   Clear
6:56 AM 21.2 °F - 19.4 °F 93% 29.93 in 10.0 mi Calm Calm - N/A   Clear
7:16 AM 21.2 °F - 19.4 °F 93% 29.94 in 10.0 mi Calm Calm - N/A   Clear
7:36 AM 24.8 °F - 21.2 °F 86% 29.92 in 10.0 mi Calm Calm - N/A   Clear
7:56 AM 24.8 °F - 19.4 °F 80% 29.92 in 10.0 mi Calm Calm - N/A   Clear
8:16 AM 21.2 °F - 17.6 °F 86% 29.92 in 10.0 mi Calm Calm - N/A   Clear
8:36 AM 21.2 °F - 19.4 °F 93% 29.91 in 10.0 mi Calm Calm - N/A   Clear
8:56 AM 24.8 °F - 21.2 °F 86% 29.90 in 10.0 mi Calm Calm - N/A   Clear
9:16 AM 24.8 °F - 21.2 °F 86% 29.91 in 10.0 mi Calm Calm - N/A   Clear
9:36 AM 24.8 °F - 23.0 °F 93% 29.91 in 10.0 mi Calm Calm - N/A   Clear
9:56 AM 26.6 °F - 23.0 °F 86% 29.91 in 10.0 mi Calm Calm - N/A   Clear
10:16 AM 28.4 °F - 24.8 °F 86% 29.90 in 10.0 mi Calm Calm - N/A   Clear
10:36 AM 30.2 °F - 24.8 °F 80% 29.90 in 10.0 mi Calm Calm - N/A   Clear
10:56 AM 30.2 °F - 24.8 °F 80% 29.90 in 10.0 mi Calm Calm - N/A   Clear
11:16 AM 30.2 °F - 24.8 °F 80% 29.90 in 10.0 mi Calm Calm - N/A   Clear
11:36 AM 35.6 °F 32.8 °F 24.8 °F 65% 29.89 in 10.0 mi NE 3.5 mph - N/A   Clear
11:56 AM 37.4 °F 33.8 °F 21.2 °F 52% 29.88 in 10.0 mi NE 4.6 mph - N/A   Clear
12:16 PM 39.2 °F 37.0 °F 21.2 °F 49% 29.87 in 10.0 mi NE 3.5 mph - N/A   Clear
12:36 PM 39.2 °F 35.9 °F 21.2 °F 49% 29.87 in 10.0 mi ENE 4.6 mph - N/A   Clear
12:56 PM 39.2 °F 35.9 °F 21.2 °F 49% 29.86 in 10.0 mi NE 4.6 mph - N/A   Clear
1:16 PM 39.2 °F 35.9 °F 21.2 °F 49% 29.86 in 10.0 mi NE 4.6 mph - N/A   Clear
1:36 PM 39.2 °F 35.9 °F 21.2 °F 49% 29.86 in 10.0 mi NE 4.6 mph - N/A   Clear
1:56 PM 41.0 °F - 21.2 °F 45% 29.86 in 10.0 mi Calm Calm - N/A   Clear
2:16 PM 39.2 °F 35.9 °F 21.2 °F 49% 29.84 in 10.0 mi ENE 4.6 mph - N/A   Clear
2:36 PM 39.2 °F 35.9 °F 21.2 °F 49% 29.84 in 10.0 mi ENE 4.6 mph - N/A   Clear
2:56 PM 41.0 °F 38.0 °F 21.2 °F 45% 29.85 in 10.0 mi East 4.6 mph - N/A   Clear
3:16 PM 39.2 °F 35.0 °F 21.2 °F 49% 29.83 in 10.0 mi NE 5.8 mph - N/A   Clear
3:36 PM 39.2 °F 35.0 °F 21.2 °F 49% 29.80 in 10.0 mi NE 5.8 mph - N/A   Clear
3:56 PM 41.0 °F 39.0 °F 21.2 °F 45% 29.79 in 10.0 mi NE 3.5 mph - N/A   Clear
4:16 PM 39.2 °F 35.9 °F 21.2 °F 49% 29.79 in 10.0 mi NE 4.6 mph - N/A   Clear
4:36 PM 39.2 °F - 21.2 °F 49% 29.78 in 10.0 mi Calm Calm - N/A   Clear
4:56 PM 39.2 °F 35.9 °F 21.2 °F 49% 29.76 in 10.0 mi NE 4.6 mph - N/A   Clear
5:16 PM 39.2 °F 37.0 °F 21.2 °F 49% 29.76 in 10.0 mi NE 3.5 mph - N/A   Clear
5:36 PM 39.2 °F 35.9 °F 21.2 °F 49% 29.74 in 10.0 mi NE 4.6 mph - N/A   Clear
5:56 PM 39.2 °F 35.9 °F 21.2 °F 49% 29.74 in 10.0 mi ENE 4.6 mph - N/A   Clear
6:16 PM 39.2 °F - 21.2 °F 49% 29.73 in 10.0 mi Calm Calm - N/A   Clear
6:36 PM 39.2 °F 37.0 °F 21.2 °F 49% 29.71 in 10.0 mi NE 3.5 mph - N/A   Clear
6:56 PM 39.2 °F - 21.2 °F 49% 29.71 in 10.0 mi Calm Calm - N/A   Clear
7:16 PM 39.2 °F 37.0 °F 21.2 °F 49% 29.70 in 10.0 mi NE 3.5 mph - N/A   Clear
7:36 PM 39.2 °F 37.0 °F 21.2 °F 49% 29.70 in 10.0 mi NE 3.5 mph - N/A   Clear
7:56 PM 39.2 °F - 21.2 °F 49% 29.68 in 10.0 mi Calm Calm - N/A   Clear
8:16 PM 39.2 °F - 21.2 °F 49% 29.67 in 10.0 mi Calm Calm - N/A   Clear
8:36 PM 39.2 °F - 21.2 °F 49% 29.67 in 10.0 mi Calm Calm - N/A   Mostly Cloudy
8:56 PM 39.2 °F - 21.2 °F 49% 29.67 in 10.0 mi Calm Calm - N/A   Mostly Cloudy
9:16 PM 39.2 °F - 23.0 °F 52% 29.67 in 10.0 mi Calm Calm - N/A   Overcast
9:36 PM 37.4 °F - 21.2 °F 52% 29.66 in 10.0 mi Calm Calm - N/A   Overcast
9:56 PM 37.4 °F - 21.2 °F 52% 29.64 in 10.0 mi Calm Calm - N/A   Overcast
10:16 PM 37.4 °F - 21.2 °F 52% 29.62 in 10.0 mi Calm Calm - N/A   Overcast
10:36 PM 35.6 °F - 21.2 °F 56% 29.64 in 10.0 mi Calm Calm - N/A   Overcast
10:56 PM 35.6 °F - 23.0 °F 60% 29.64 in 10.0 mi Calm Calm - N/A   Overcast
11:16 PM 35.6 °F - 23.0 °F 60% 29.63 in 10.0 mi Calm Calm - N/A   Overcast
11:36 PM 35.6 °F - 23.0 °F 60% 29.63 in 10.0 mi Calm Calm - N/A   Overcast
11:56 PM 37.4 °F - 21.2 °F 52% 29.64 in 10.0 mi Calm Calm - N/A   Overcast